Location: Hertford
(51.8000°N, 0.0667°W)
Time: 16:07:49
(UTC+00:00)

Cosmos 1733 - Pass Details

Date: 18 September 2020
Orbit: 504 x 522 km, 82.5° (Epoch: 31 October)

Event Time Altitude Azimuth Distance (km) Brightness Sun altitude
Exits shadow 20:52:22 51° 357° (N) 662 3.8 -24.5°
Drops below altitude 10° 20:55:21 10° 8° (N) 1,761 6.2 -24.8°
Sets 20:57:29 0° 10° (N) 2,650 7.2 -25.1°
